Flag for Norway Weather past 2 weeks in Langesund, Norway

Now
45 °F

Cool.


Feels Like: 39 °F
Forecast: 42 / 50 °F
Wind: 14 mph from Southwest

Location: Jomfruland Fyr


UV Index: 0 (Low)

Visibility: N/A


Pressure: 30.20 "Hg

Humidity: 87%

Dew point: 41 °F

Location of LangesundLocation

Historic Weather in Langesund

°F

Langesund temperature yesterday

Maximum temperature yesterday: 54 °F (at 4:00 PM)
Minimum temperature yesterday: 41 °F (at 4:00 AM)
Average temperature yesterday: 46 °F

Past Weeks' High & Low Weather Summary

 TemperatureHumidityPressure
High55 °F (Apr 14, 2:00 PM)98% (Apr 7, 6:00 AM)30.35 "Hg (Apr 7, 6:00 AM)
Low31 °F (Apr 2, 7:00 AM)22% (Apr 15, 3:00 PM)29.41 "Hg (Apr 13, 4:00 AM)
Average43 °F78%29.87 "Hg
* Reported Apr 1 5:00 PM — Apr 16 5:00 PM, Langesund, Weather by CustomWeather, © 2014

Note: Actual official high and low records may vary slightly from our data, if they occured in-between our weather recording intervals... More about our weather records

Advertising

Historic Weather Conditions — Data for Previous 24 hours

 ConditionsComfort  
Time TempWeatherWind HumidityBarometerVisibility
5:00 PM
Apr 16
46 °FCool.14 mph84%30.22 "HgN/A
4:00 PM46 °FCool.14 mph82%30.22 "HgN/A
3:00 PM46 °FCool.13 mph80%30.24 "HgN/A
2:00 PM46 °FCool.12 mph78%30.25 "HgN/A
1:00 PM46 °FCool.10 mph78%30.28 "HgN/A
12:00 PM46 °FCool.10 mph73%30.28 "HgN/A
11:00 AM45 °FCool.9 mph73%30.29 "HgN/A
10:00 AM44 °FQuite cool.6 mph70%30.31 "HgN/A
9:00 AM44 °FQuite cool.5 mph70%30.32 "HgN/A
8:00 AM41 °FQuite cool.2 mph73%30.32 "HgN/A
7:00 AM39 °FChilly.1 mph76%30.33 "HgN/A
6:00 AM38 °FChilly.1 mph72%30.34 "HgN/A
5:00 AM39 °FChilly.No wind70%30.34 "HgN/A
4:00 AM40 °FQuite cool.1 mph64%30.34 "HgN/A
3:00 AM39 °FChilly.1 mph71%30.34 "HgN/A
2:00 AM41 °FQuite cool.2 mph70%30.35 "HgN/A
11:00 PM
Apr 15
44 °FQuite cool.3 mph68%30.33 "HgN/A
10:00 PM44 °FQuite cool.5 mph72%30.32 "HgN/A
9:00 PM45 °FQuite cool.6 mph75%30.32 "HgN/A
8:00 PM45 °FCool.8 mph70%30.30 "HgN/A
7:00 PM46 °FCool.7 mph64%30.29 "HgN/A
Weather by CustomWeather, © 2014

See weather overview